Weather History for Savannah Hunter, GA

Change the Weather History Date:

Wednesday, February 20, 2013

  Actual Average Record
Temperature  
Mean Temperature 48 °F -  
Max Temperature 63 °F 64 °F 77 °F (1997)
Min Temperature 32 °F 42 °F 32 °F (2009)
Degree Days  
Heating Degree Days 18    
Moisture  
Dew Point 35 °F    
Average Humidity 67    
Maximum Humidity 100    
Minimum Humidity 24    
Precipitation  
Precipitation 0.00 in - - ()
Sea Level Pressure  
Sea Level Pressure 30.11 in    
Wind  
Wind Speed 7 mph (West)    
Max Wind Speed 13 mph    
Max Gust Speed -    
Visibility 10 miles    
Events      
Averages and records for this station are not official NWS values.
T = Trace of Precipitation, MM = Missing Value Source: NWS Daily Summary

Daily Weather History Graph

Daily Weather History Graph

Search for Another Location

Airport:

Trip Planner

Search our weather history database for the weather conditions in past years. The results will help you decide how hot, cold, wet, or windy it might be!

Date:

Astronomy

Feb. 20, 2013 Rise Set
Actual Time 7:01 AM EST 6:15 PM EST
Civil Twilight 6:36 AM EST 6:40 PM EST
Nautical Twilight 6:08 AM EST 7:08 PM EST
Astronomical Twilight 5:39 AM EST 7:37 PM EST
Moon 1:45 PM EST (2/20) 3:10 AM EST (2/20)
Length of Visible Light 12h 03m
Length of Day
11h 13m
Waxing Gibbous, 76% of the Moon is Illuminated
Feb 20
Waxing Gibbous
Feb 25
Full
Mar 4
Last Quarter
Mar 11
New
Mar 19
First Quarter

Hourly Weather History & Observations

Time (EST) Temp. Windchill Dew Point Humidity Pressure Visibility Wind Dir Wind Speed Gust Speed Precip Events Conditions
12:03 AM 48.2 °F - 46.4 °F 93% 30.07 in 1.5 mi WNW 10.4 mph - N/A   Partly Cloudy
12:08 AM 50.0 °F - 50.0 °F 100% 30.07 in 8.0 mi WNW 12.7 mph - N/A   Partly Cloudy
12:13 AM 50.0 °F - 50.0 °F 100% 30.07 in 10.0 mi WNW 9.2 mph - N/A   Clear
12:58 AM 48.2 °F - 47.5 °F 97% 30.09 in 10.0 mi NW 6.9 mph - N/A   Clear
1:58 AM 46.2 °F 42.2 °F 44.2 °F 93% 30.10 in 10.0 mi NW 8.1 mph - N/A   Clear
2:58 AM 44.1 °F 40.1 °F 35.8 °F 73% 30.11 in 10.0 mi WNW 6.9 mph - N/A   Clear
3:58 AM 40.3 °F 36.3 °F 33.3 °F 76% 30.11 in 10.0 mi NW 5.8 mph - N/A   Clear
4:58 AM 36.5 °F - 31.8 °F 83% 30.12 in 10.0 mi SW 2.3 mph - N/A   Clear
5:58 AM 33.8 °F - 31.6 °F 92% 30.14 in 10.0 mi SW 2.3 mph - N/A   Clear
6:58 AM 32.0 °F - 30.6 °F 94% 30.16 in 10.0 mi West 2.3 mph - N/A   Clear
7:58 AM 34.2 °F - 32.5 °F 94% 30.18 in 10.0 mi Calm Calm - N/A   Clear
8:58 AM 43.2 °F 39.0 °F 31.3 °F 63% 30.18 in 10.0 mi WNW 6.9 mph - N/A   Clear
9:58 AM 47.1 °F - 26.6 °F 45% 30.18 in 10.0 mi NNW 8.1 mph - N/A   Clear
10:58 AM 49.8 °F - 24.6 °F 37% 30.16 in 10.0 mi North 3.5 mph - N/A   Clear
11:56 AM 53.6 °F - 24.8 °F 33% 30.14 in 10.0 mi Variable 1.2 mph - N/A   Clear
12:56 PM 55.4 °F - 24.8 °F 31% 30.10 in 10.0 mi Variable 1.2 mph - N/A   Partly Cloudy
2:58 PM 60.6 °F - 25.9 °F 27% 30.08 in 10.0 mi West 8.1 mph - N/A   Clear
3:58 PM 63.0 °F - 25.3 °F 24% 30.06 in 10.0 mi Variable 2.3 mph - N/A   Clear
4:58 PM 62.2 °F - 26.4 °F 26% 30.08 in 10.0 mi WNW 8.1 mph - N/A   Clear
5:58 PM 55.2 °F - 36.5 °F 49% 30.09 in 10.0 mi SE 6.9 mph - N/A   Clear
6:58 PM 50.4 °F - 35.4 °F 57% 30.12 in 10.0 mi SE 2.3 mph - N/A   Mostly Cloudy
7:58 PM 47.1 °F - 37.4 °F 69% 30.13 in 10.0 mi South 2.3 mph - N/A   Overcast
8:58 PM 48.4 °F - 39.2 °F 71% 30.10 in 10.0 mi SSE 4.6 mph - N/A   Overcast
9:58 PM 49.6 °F - 39.6 °F 68% 30.08 in 10.0 mi SE 5.8 mph - N/A   Overcast
10:58 PM 48.7 °F - 39.9 °F 72% 30.10 in 10.0 mi Calm Calm - N/A   Mostly Cloudy
11:58 PM 43.5 °F - 39.4 °F 85% 30.10 in 10.0 mi Calm Calm - N/A   Clear